Record,Date/Time,10,Freq,Rcvr,Alpha,dTdG,K1,K2,K3,K4,Tnd
     1,05/09/2018 00:00:28,11, 22.000,0, 0.995100,  -499071.65,  0.16543191E+03, -0.15504021E+01,  0.49083044E-02, -0.52730206E-05, 273.70
     2,05/09/2018 00:00:28,11, 22.234,0, 0.997080,  -458725.41,  0.95669020E+02, -0.92484013E+00,  0.30759395E-02, -0.35324078E-05, 239.08
     3,05/09/2018 00:00:28,11, 22.500,0, 0.996000,  -406187.40,  0.25660893E+03, -0.25819544E+01,  0.85485022E-02, -0.92980927E-05, 201.26
     4,05/09/2018 00:00:28,11, 23.000,0, 0.996460,  -386058.84,  0.80322341E+02, -0.69305273E+00,  0.19308656E-02, -0.17107239E-05, 165.08
     5,05/09/2018 00:00:28,11, 23.034,0, 0.997170,  -390667.51,  0.11982393E+02,  0.30545022E-01, -0.60254591E-03,  0.12232425E-05, 164.41
     6,05/09/2018 00:00:28,11, 23.500,0, 0.997550,  -368692.46,  0.99890591E+02, -0.93570264E+00,  0.29523934E-02, -0.31503182E-05, 173.69
     7,05/09/2018 00:00:28,11, 23.834,0, 0.997920,  -376527.84,  0.15890200E+03, -0.15666295E+01,  0.51366914E-02, -0.55998683E-05, 188.65
     8,05/09/2018 00:00:28,11, 24.000,0, 0.996450,  -355334.60,  0.24853955E+03, -0.25184584E+01,  0.84740808E-02, -0.94656113E-05, 197.80
     9,05/09/2018 00:00:28,11, 24.500,0, 0.994550,  -387621.08,  0.83813921E+02, -0.70324691E+00,  0.18990758E-02, -0.16230509E-05, 191.44
    10,05/09/2018 00:00:28,11, 25.000,0, 0.995590,  -365396.41,  0.21502088E+02, -0.16971927E+00,  0.46228154E-03, -0.45763980E-06, 158.52
    11,05/09/2018 00:00:28,11, 25.500,0, 0.997270,  -337460.85,  0.12798899E+03, -0.12846229E+01,  0.42697875E-02, -0.46962759E-05, 140.51
    12,05/09/2018 00:00:28,11, 26.000,0, 0.995340,  -333542.31,  0.74671632E+02, -0.62527339E+00,  0.17409355E-02, -0.16300392E-05, 172.43
    13,05/09/2018 00:00:28,11, 26.234,0, 0.993950,  -322237.97,  0.11519672E+03, -0.10091282E+01,  0.29284075E-02, -0.28221173E-05, 197.07
    14,05/09/2018 00:00:28,11, 26.500,0, 0.993920,  -357546.35, -0.45917312E+02,  0.59695900E+00, -0.23085680E-02,  0.27450808E-05, 229.99
    15,05/09/2018 00:00:28,11, 27.000,0, 0.996280,  -400616.90,  0.18200796E+03, -0.17554716E+01,  0.56489252E-02, -0.60681373E-05, 258.41
    16,05/09/2018 00:00:28,11, 27.500,0, 0.994600,  -367846.26,  0.61900985E+02, -0.37506884E+00,  0.50488044E-03,  0.18075908E-06, 232.70
    17,05/09/2018 00:00:28,11, 28.000,0, 0.994550,  -352210.37,  0.48269270E+02, -0.25583474E+00,  0.27971515E-03,  0.98354210E-07, 237.41
    18,05/09/2018 00:00:28,11, 28.500,0, 0.996090,  -360809.26,  0.24138848E+03, -0.23632637E+01,  0.77497593E-02, -0.85201012E-05, 237.92
    19,05/09/2018 00:00:28,11, 29.000,0, 0.993930,  -358196.95,  0.10568483E+03, -0.95307975E+00,  0.29148993E-02, -0.30519798E-05, 197.80
    20,05/09/2018 00:00:28,11, 29.500,0, 0.991490,  -312519.78, -0.63528260E+02,  0.61795241E+00, -0.19458129E-02,  0.19666623E-05, 106.84
    21,05/09/2018 00:00:28,11, 30.000,0, 0.993370,  -353110.93,  0.15567177E+02, -0.15747733E+00,  0.59272243E-03, -0.80965628E-06, 117.98
Record,Date/Time,30,TkBB(K),Tnd(K) Ch  22.000,R Ch  22.000,Tnd(K) Ch  22.234,R Ch  22.234,Tnd(K) Ch  22.500,R Ch  22.500,Tnd(K) Ch  23.000,R Ch  23.000,Tnd(K) Ch  23.034,R Ch  23.034,Tnd(K) Ch  23.500,R Ch  23.500,Tnd(K) Ch  23.834,R Ch  23.834,Tnd(K) Ch  24.000,R Ch  24.000,Tnd(K) Ch  24.500,R Ch  24.500,Tnd(K) Ch  25.000,R Ch  25.000,Tnd(K) Ch  25.500,R Ch  25.500,Tnd(K) Ch  26.000,R Ch  26.000,Tnd(K) Ch  26.234,R Ch  26.234,Tnd(K) Ch  26.500,R Ch  26.500,Tnd(K) Ch  27.000,R Ch  27.000,Tnd(K) Ch  27.500,R Ch  27.500,Tnd(K) Ch  28.000,R Ch  28.000,Tnd(K) Ch  28.500,R Ch  28.500,Tnd(K) Ch  29.000,R Ch  29.000,Tnd(K) Ch  29.500,R Ch  29.500,Tnd(K) Ch  30.000,R Ch  30.000
Record,Date/Time,20,TkBB(K),Tnd(K) Ch  1,R Ch  1,Tnd(K) Ch  2,R Ch  2,Tnd(K) Ch  3,R Ch  3,Tnd(K) Ch  4,R Ch  4,Tnd(K) Ch  5,R Ch  5
    22,05/09/2018 00:04:46,31,314.340, 269.645, 0.996629, 233.870, 0.996710, 197.081, 0.995982, 162.247, 0.996517, 161.699, 0.995915, 171.414, 0.995750, 185.431, 0.996184, 194.564, 1.000000, 189.162, 0.995235, 156.432, 0.999621, 138.500, 0.997261, 171.420, 0.999655, 195.943, 0.996794, 228.859, 0.996214, 256.341, 0.998603, 230.159, 0.996357, 235.602, 0.997519, 236.602, 0.995350, 196.600, 0.997447, 105.767, 0.997733, 116.604, 0.999470
    23,05/09/2018 00:08:58,31,314.247, 272.470, 0.991203, 236.727, 0.992426, 199.313, 0.991183, 164.037, 0.987979, 163.378, 0.990624, 172.396, 0.988086, 187.172, 0.988126, 196.021, 1.000000, 190.203, 0.984569, 157.451, 0.998454, 139.152, 0.991861, 171.984, 0.995823, 196.724, 0.990070, 229.787, 0.989846, 257.581, 0.996318, 231.192, 0.995181, 235.886, 0.996474, 237.142, 0.992565, 197.264, 0.992947, 106.151, 0.992639, 117.058, 0.997345
    24,05/09/2018 00:13:11,31,314.220, 268.761, 0.998000, 233.872, 0.998231, 196.689, 0.997385, 162.059, 0.997335, 161.645, 0.997857, 171.067, 0.997002, 185.262, 0.997197, 194.537, 1.000000, 189.130, 0.998294, 156.617, 0.998308, 138.478, 0.997646, 171.114, 0.998996, 195.793, 0.997532, 229.154, 0.997753, 256.516, 0.998856, 230.745, 0.997976, 235.417, 0.998889, 236.522, 0.997141, 196.656, 0.998443, 105.938, 0.997624, 116.712, 0.999297
    25,05/09/2018 00:17:24,31,314.034, 269.512, 0.985126, 234.903, 0.987734, 197.948, 0.987594, 162.989, 0.984717, 162.504, 0.985448, 171.930, 0.985285, 186.259, 0.985716, 195.414, 1.000000, 189.688, 0.981958, 156.983, 0.997139, 139.040, 0.986793, 171.830, 0.993675, 196.037, 0.988427, 229.186, 0.986603, 256.842, 0.993332, 230.879, 0.990349, 235.765, 0.993716, 236.916, 0.987817, 196.920, 0.988177, 105.804, 0.990945, 116.729, 0.996730
    26,05/09/2018 00:21:38,31,313.993, 272.908, 0.989821, 237.542, 0.991876, 199.262, 0.990277, 164.436, 0.989654, 163.755, 0.991630, 172.983, 0.987115, 187.448, 0.989089, 196.639, 1.000000, 190.912, 0.986200, 157.579, 0.999522, 139.285, 0.991397, 172.343, 0.996680, 197.276, 0.994065, 230.029, 0.993502, 258.009, 0.996987, 231.976, 0.994471, 236.904, 0.998518, 237.817, 0.994647, 197.553, 0.994501, 106.402, 0.996024, 117.106, 0.999015
    27,05/09/2018 00:25:51,31,313.940, 268.586, 0.993940, 234.046, 0.996180, 196.997, 0.996174, 162.197, 0.995521, 161.885, 0.994929, 170.959, 0.995637, 185.740, 0.995624, 194.597, 1.000000, 189.092, 0.992367, 156.657, 0.998708, 138.718, 0.997574, 171.472, 0.998417, 196.107, 0.995891, 229.117, 0.996936, 256.790, 0.998295, 230.890, 0.998128, 235.677, 0.996703, 237.084, 0.997104, 196.688, 0.997862, 105.890, 0.997435, 116.703, 0.999620
    28,05/09/2018 00:30:04,31,313.832, 270.859, 0.998044, 235.494, 0.999325, 198.323, 0.999266, 163.080, 0.998479, 162.590, 0.999353, 172.321, 0.999346, 186.621, 0.998362, 196.073, 1.000000, 190.166, 0.997081, 157.424, 0.997539, 139.030, 0.999386, 171.774, 0.999679, 196.389, 0.997417, 229.409, 0.998918, 257.468, 0.998156, 231.418, 0.999011, 236.225, 0.999259, 237.185, 0.998561, 197.200, 0.997559, 106.104, 0.999356, 116.983, 0.999854
    29,05/09/2018 00:34:19,31,313.620, 272.517, 0.999892, 236.721, 0.999186, 199.553, 0.998275, 164.316, 0.999137, 163.879, 0.999423, 172.798, 0.998071, 187.313, 0.998166, 196.564, 1.000000, 190.621, 0.997810, 157.521, 0.998386, 139.542, 0.998558, 172.510, 0.999398, 197.112, 0.999008, 230.461, 0.999403, 257.996, 0.999159, 232.024, 0.997534, 236.656, 0.999010, 237.828, 0.998267, 197.602, 0.997859, 106.367, 0.998763, 117.296, 0.999817
    30,05/09/2018 00:38:32,31,313.367, 273.479, 0.994912, 237.431, 0.996722, 200.016, 0.997219, 164.731, 0.997790, 164.162, 0.997070, 173.149, 0.999126, 187.827, 0.998533, 196.942, 1.000000, 190.771, 0.997320, 157.752, 0.988409, 139.384, 0.998725, 172.204, 0.995698, 196.850, 0.994274, 230.005, 0.998018, 257.625, 0.994267, 231.845, 0.999421, 236.439, 0.992836, 237.556, 0.999559, 197.432, 0.997301, 106.396, 0.999770, 117.330, 0.997838
    31,05/09/2018 00:42:46,31,313.216, 271.778, 0.996886, 235.772, 0.998654, 198.633, 0.998719, 163.291, 0.998239, 162.869, 0.998785, 172.199, 0.999250, 186.804, 0.999041, 196.011, 1.000000, 190.025, 0.997006, 156.944, 0.995217, 139.027, 0.999215, 171.374, 0.996635, 196.258, 0.995348, 229.245, 0.998595, 257.244, 0.995712, 230.813, 0.999272, 235.798, 0.996614, 236.979, 0.999365, 197.442, 0.996603, 106.013, 0.999363, 116.776, 0.998294
    32,05/09/2018 00:47:00,31,313.245, 273.218, 0.994562, 237.749, 0.998310, 200.073, 0.998296, 164.780, 0.997214, 163.985, 0.996709, 173.286, 0.997898, 187.749, 0.998406, 196.974, 1.000000, 190.886, 0.994936, 157.791, 0.996575, 139.756, 0.998297, 172.585, 0.997384, 197.079, 0.992673, 230.120, 0.997315, 257.705, 0.995764, 231.700, 0.998203, 236.919, 0.995009, 238.020, 0.998512, 198.179, 0.993943, 106.567, 0.998846, 117.413, 0.998669
    33,05/09/2018 00:51:15,31,313.150, 271.074, 0.995182, 236.191, 0.998545, 198.239, 0.998602, 163.433, 0.996424, 162.784, 0.997378, 172.233, 0.997361, 186.571, 0.996442, 195.670, 1.000000, 190.017, 0.993883, 157.129, 0.997350, 138.817, 0.998307, 171.610, 0.998207, 196.289, 0.997128, 229.478, 0.998140, 257.183, 0.995315, 230.662, 0.996747, 235.583, 0.996985, 236.869, 0.998126, 197.161, 0.993710, 106.026, 0.997942, 116.880, 0.998858
    34,05/09/2018 00:55:29,31,312.963, 271.127, 0.996074, 236.432, 0.997893, 198.664, 0.997974, 163.671, 0.997160, 162.952, 0.997918, 172.251, 0.998742, 186.886, 0.997844, 195.784, 1.000000, 190.258, 0.996216, 157.038, 0.995503, 139.222, 0.998564, 171.641, 0.997406, 196.444, 0.996033, 229.531, 0.999214, 257.072, 0.994650, 230.889, 0.997522, 235.958, 0.996807, 237.360, 0.998514, 197.558, 0.995557, 106.320, 0.997645, 116.906, 0.999181
    35,05/09/2018 00:59:42,31,312.756, 269.467, 0.995137, 234.602, 0.996841, 197.169, 0.997130, 162.542, 0.995326, 161.891, 0.995545, 171.423, 0.996295, 185.900, 0.995480, 195.066, 1.000000, 189.437, 0.992010, 156.511, 0.998160, 138.994, 0.996048, 171.354, 0.998181, 196.053, 0.993555, 229.273, 0.995288, 256.769, 0.995437, 231.152, 0.997615, 235.215, 0.995869, 237.130, 0.996465, 196.662, 0.995269, 105.846, 0.998121, 116.739, 0.997302
    36,05/09/2018 01:03:56,31,312.334, 271.327, 0.997109, 235.458, 0.999283, 198.974, 0.999687, 163.328, 0.998631, 163.060, 0.998504, 172.480, 0.999151, 186.915, 0.998927, 196.191, 1.000000, 190.193, 0.996766, 157.128, 0.996522, 139.259, 0.998580, 172.083, 0.998075, 196.735, 0.995695, 230.062, 0.999451, 257.838, 0.996760, 231.658, 0.998800, 236.253, 0.997447, 237.560, 0.998985, 197.547, 0.996227, 106.130, 0.997266, 116.923, 0.999557
    37,05/09/2018 01:08:10,31,311.849, 270.167, 0.995945, 235.358, 0.997849, 198.312, 0.998144, 163.190, 0.998019, 162.506, 0.997808, 171.591, 0.998456, 186.288, 0.998417, 195.709, 1.000000, 189.749, 0.996688, 156.813, 0.996946, 139.022, 0.998995, 171.639, 0.999267, 196.043, 0.996047, 229.187, 0.998553, 256.922, 0.997200, 230.907, 0.999478, 235.638, 0.998794, 237.108, 0.997767, 197.236, 0.998536, 106.239, 0.998664, 116.939, 0.999578
    38,05/09/2018 01:12:24,31,311.362, 270.334, 0.994315, 235.454, 0.997749, 197.914, 0.997764, 162.994, 0.995650, 162.648, 0.996007, 171.991, 0.995820, 186.681, 0.995946, 195.558, 1.000000, 189.692, 0.993042, 156.709, 0.998860, 138.854, 0.995679, 171.555, 0.997360, 196.089, 0.992740, 229.226, 0.996425, 256.957, 0.996955, 231.219, 0.995731, 235.805, 0.996513, 237.048, 0.994848, 197.088, 0.994217, 105.876, 0.997001, 116.787, 0.998705
    39,05/09/2018 01:16:38,31,310.847, 270.744, 0.997694, 235.412, 0.998961, 198.139, 0.998498, 163.079, 0.997721, 162.641, 0.997362, 171.785, 0.997398, 186.392, 0.995472, 195.690, 1.000000, 189.574, 0.995344, 156.893, 0.999807, 139.075, 0.997227, 171.461, 0.999407, 196.011, 0.997246, 229.231, 0.997663, 256.928, 0.999043, 231.012, 0.997584, 235.713, 0.998930, 237.333, 0.996086, 197.317, 0.997592, 105.926, 0.998168, 116.679, 0.999535
    40,05/09/2018 01:20:51,31,310.407, 270.783, 0.997574, 235.340, 0.999292, 198.492, 0.999140, 163.404, 0.998344, 162.579, 0.998115, 172.074, 0.998518, 186.583, 0.998021, 195.535, 1.000000, 189.377, 0.996099, 156.922, 0.999249, 138.986, 0.998485, 171.893, 0.999367, 196.372, 0.995651, 229.423, 0.998710, 257.188, 0.997860, 230.990, 0.997731, 235.992, 0.997788, 236.929, 0.998116, 196.893, 0.997112, 105.979, 0.998190, 116.772, 0.999688
    41,05/09/2018 01:25:05,31,309.964, 273.857, 0.996561, 238.341, 0.998722, 200.333, 0.997094, 165.017, 0.996284, 164.239, 0.996588, 173.697, 0.995668, 188.035, 0.995002, 197.183, 1.000000, 191.065, 0.993215, 157.661, 0.999559, 139.786, 0.995787, 172.423, 0.998400, 197.014, 0.994440, 229.842, 0.994869, 257.938, 0.998299, 231.727, 0.995364, 236.074, 0.998335, 237.715, 0.996438, 197.824, 0.997220, 106.190, 0.997174, 117.185, 0.998244
    42,05/09/2018 01:29:18,31,309.519, 272.103, 0.996972, 236.810, 0.998549, 199.444, 0.997082, 164.218, 0.996948, 163.459, 0.996572, 172.710, 0.994377, 187.209, 0.995574, 196.451, 1.000000, 190.528, 0.990948, 157.583, 0.998877, 139.255, 0.996229, 171.904, 0.999243, 196.746, 0.995390, 229.942, 0.997010, 257.741, 0.998906, 231.489, 0.997747, 236.032, 0.997584, 237.383, 0.994904, 197.750, 0.997722, 106.318, 0.997804, 117.041, 0.999665
    43,05/09/2018 01:33:33,31,309.010, 271.811, 0.997107, 236.009, 0.997974, 199.036, 0.999276, 163.642, 0.997451, 163.005, 0.998042, 172.650, 0.998498, 187.010, 0.999166, 195.916, 1.000000, 190.316, 0.995634, 157.320, 0.997168, 139.141, 0.999172, 171.875, 0.998517, 196.802, 0.994391, 229.625, 0.998732, 257.479, 0.995956, 231.446, 0.998204, 235.957, 0.995478, 237.360, 0.999092, 197.265, 0.996675, 106.313, 0.999631, 116.982, 0.999339
    44,05/09/2018 01:37:47,31,308.550, 271.531, 0.996172, 235.961, 0.997545, 198.519, 0.998204, 163.419, 0.996811, 163.199, 0.996518, 172.356, 0.998125, 186.525, 0.998402, 195.880, 1.000000, 189.937, 0.995513, 157.232, 0.993102, 139.221, 0.998782, 171.672, 0.996362, 196.481, 0.994038, 229.345, 0.998579, 257.168, 0.992985, 231.480, 0.998877, 235.848, 0.994630, 237.545, 0.997836, 197.353, 0.995585, 106.327, 0.997762, 117.060, 0.998836
    45,05/09/2018 01:42:01,31,308.180, 271.727, 0.997273, 236.632, 0.999433, 199.524, 0.998975, 164.189, 0.997945, 163.326, 0.997914, 172.529, 0.998536, 186.912, 0.998386, 196.115, 1.000000, 190.289, 0.996655, 157.184, 0.998125, 139.110, 0.998165, 171.644, 0.997849, 196.387, 0.994852, 229.780, 0.997710, 257.578, 0.998162, 231.212, 0.998152, 236.134, 0.995159, 237.391, 0.996836, 197.413, 0.995490, 106.315, 0.998787, 117.038, 0.999906
    46,05/09/2018 01:46:16,31,307.846, 270.325, 0.993021, 235.645, 0.997202, 198.155, 0.996758, 163.350, 0.996530, 162.646, 0.996172, 171.991, 0.998304, 186.673, 0.998167, 195.877, 1.000000, 189.596, 0.994820, 156.835, 0.992446, 138.899, 0.998265, 171.753, 0.996015, 196.276, 0.992617, 229.116, 0.998394, 256.998, 0.994353, 231.043, 0.997750, 235.607, 0.994516, 236.724, 0.997464, 197.362, 0.994232, 105.998, 0.998364, 116.795, 0.998262
    47,05/09/2018 01:50:30,31,307.520, 270.917, 0.998626, 236.436, 0.999733, 198.788, 0.999406, 163.634, 0.998893, 162.909, 0.998930, 172.048, 0.999324, 186.491, 0.999001, 195.632, 1.000000, 190.074, 0.996617, 156.983, 0.997872, 138.901, 0.999296, 171.812, 0.999369, 196.528, 0.997474, 229.227, 0.999224, 256.920, 0.998121, 231.261, 0.998377, 236.293, 0.997366, 237.282, 0.998235, 197.336, 0.998484, 106.155, 0.999729, 116.840, 0.999589
    48,05/09/2018 01:54:44,31,307.221, 272.423, 0.997240, 236.534, 0.999146, 199.021, 0.998852, 163.903, 0.998302, 163.485, 0.998045, 172.294, 0.997649, 186.627, 0.997673, 195.954, 1.000000, 190.153, 0.995327, 157.256, 0.998933, 139.241, 0.998216, 172.066, 0.998657, 196.773, 0.997260, 229.687, 0.997140, 257.915, 0.998906, 231.499, 0.996073, 235.935, 0.998369, 237.376, 0.996446, 197.314, 0.994339, 106.272, 0.998046, 116.908, 0.999710
    49,05/09/2018 01:58:59,31,306.961, 271.834, 0.996839, 237.340, 0.997798, 199.222, 0.998074, 164.527, 0.996434, 163.558, 0.997353, 172.998, 0.996297, 187.193, 0.997050, 196.209, 1.000000, 190.722, 0.994822, 157.515, 0.997341, 139.339, 0.998168, 172.337, 0.998478, 196.718, 0.995066, 229.841, 0.997919, 257.459, 0.996751, 231.573, 0.997366, 236.322, 0.999295, 237.393, 0.995960, 197.483, 0.996327, 106.394, 0.996668, 117.075, 0.999630
    50,05/09/2018 02:03:14,31,306.737, 272.565, 0.995026, 237.467, 0.996121, 200.084, 0.994317, 164.542, 0.993648, 163.863, 0.994255, 172.790, 0.993956, 187.596, 0.993254, 196.903, 1.000000, 190.950, 0.991534, 157.427, 0.999113, 139.790, 0.996432, 172.241, 0.998414, 197.025, 0.992837, 230.005, 0.994280, 258.191, 0.999182, 231.553, 0.994038, 236.220, 0.998410, 237.509, 0.993749, 197.824, 0.997404, 106.494, 0.995411, 117.153, 0.999038
    51,05/09/2018 02:07:28,31,306.505, 271.594, 0.996480, 236.355, 0.998877, 199.325, 0.997637, 164.118, 0.997218, 163.500, 0.997597, 172.512, 0.996826, 187.072, 0.998377, 195.920, 1.000000, 190.256, 0.993090, 157.080, 0.998851, 139.088, 0.998596, 171.878, 0.999843, 196.675, 0.997175, 229.529, 0.997381, 257.274, 0.998949, 231.246, 0.997081, 236.042, 0.997525, 236.925, 0.996825, 197.039, 0.997030, 106.156, 0.995273, 116.903, 0.998838
    52,05/09/2018 02:11:41,31,306.275, 272.032, 0.993210, 236.966, 0.995769, 199.117, 0.995091, 163.845, 0.994376, 163.549, 0.994206, 172.630, 0.993381, 187.368, 0.994054, 196.216, 1.000000, 190.321, 0.992227, 157.261, 0.999639, 139.085, 0.994161, 171.900, 0.999445, 196.699, 0.993854, 229.509, 0.996948, 257.442, 0.999370, 231.180, 0.996328, 235.812, 0.999259, 236.913, 0.992863, 197.348, 0.995425, 106.067, 0.998339, 116.820, 0.999789
    53,05/09/2018 02:15:55,31,305.983, 272.937, 0.984798, 237.160, 0.988291, 199.763, 0.985944, 164.338, 0.983701, 163.606, 0.985949, 172.892, 0.985702, 187.129, 0.984774, 196.308, 1.000000, 190.380, 0.985551, 157.215, 0.999090, 139.240, 0.989884, 172.099, 0.995496, 196.845, 0.991682, 229.738, 0.990009, 257.557, 0.998202, 231.550, 0.993534, 236.013, 0.997204, 237.245, 0.991281, 197.438, 0.994792, 106.144, 0.994237, 117.005, 0.996757
    54,05/09/2018 02:20:10,31,305.816, 271.465, 0.988208, 236.264, 0.991017, 198.810, 0.985540, 163.862, 0.985863, 163.040, 0.986943, 172.217, 0.986437, 186.616, 0.985290, 196.008, 1.000000, 189.977, 0.985865, 157.179, 0.998504, 139.071, 0.990168, 171.705, 0.993829, 196.416, 0.993681, 229.201, 0.985935, 257.271, 0.997238, 231.336, 0.990072, 235.754, 0.998345, 237.171, 0.988475, 197.279, 0.989732, 106.024, 0.993963, 116.850, 0.996761
    55,05/09/2018 02:24:23,31,305.577, 271.671, 0.992152, 236.550, 0.995090, 199.103, 0.993616, 163.818, 0.991834, 163.523, 0.992941, 172.530, 0.991065, 187.080, 0.992201, 196.061, 1.000000, 189.908, 0.989475, 157.176, 0.999568, 139.362, 0.992153, 172.151, 0.997750, 196.657, 0.993478, 229.636, 0.994807, 257.475, 0.998684, 231.668, 0.997157, 236.148, 0.997197, 237.381, 0.994671, 197.810, 0.997087, 106.270, 0.996061, 117.238, 0.999142
    56,05/09/2018 02:28:36,31,305.429, 271.459, 0.989811, 236.099, 0.991714, 198.958, 0.989678, 163.364, 0.989883, 163.068, 0.990659, 172.492, 0.986375, 187.157, 0.988414, 195.865, 1.000000, 189.937, 0.989268, 156.933, 0.999235, 139.345, 0.992975, 172.079, 0.996568, 196.608, 0.994172, 229.181, 0.992900, 257.537, 0.997946, 231.241, 0.992335, 235.975, 0.997962, 237.398, 0.992170, 197.496, 0.991794, 106.287, 0.996737, 116.987, 0.997849
    57,05/09/2018 02:32:51,31,305.331, 270.833, 0.980564, 236.034, 0.984667, 198.578, 0.980153, 163.742, 0.979542, 162.770, 0.982466, 172.135, 0.978872, 186.795, 0.977890, 195.578, 1.000000, 190.138, 0.975175, 157.227, 0.995018, 139.243, 0.981296, 171.493, 0.992735, 196.240, 0.985091, 228.927, 0.983626, 257.129, 0.995071, 231.101, 0.983434, 235.757, 0.990992, 237.270, 0.980182, 197.373, 0.991567, 106.172, 0.990304, 116.942, 0.995425
    58,05/09/2018 02:37:04,31,305.317, 271.609, 0.989457, 236.733, 0.992195, 199.087, 0.989562, 163.828, 0.987775, 163.417, 0.990194, 172.180, 0.987238, 186.820, 0.987753, 195.901, 1.000000, 190.183, 0.984601, 157.042, 0.999522, 139.286, 0.992673, 171.824, 0.997345, 196.650, 0.991381, 229.842, 0.992475, 257.328, 0.996308, 231.269, 0.992884, 235.851, 0.996394, 237.043, 0.988461, 197.627, 0.991982, 106.229, 0.992053, 116.714, 0.996542
    59,05/09/2018 02:41:18,31,305.274, 271.466, 0.990909, 236.617, 0.994053, 198.867, 0.991800, 163.736, 0.989448, 163.103, 0.991943, 172.367, 0.992100, 186.810, 0.992113, 196.094, 1.000000, 190.261, 0.989273, 157.206, 0.999578, 139.167, 0.995210, 171.660, 0.997879, 196.495, 0.993241, 229.321, 0.994881, 257.181, 0.997841, 231.243, 0.995122, 235.818, 0.996755, 237.145, 0.996526, 197.276, 0.994853, 106.123, 0.995358, 116.785, 0.999423
    60,05/09/2018 02:45:32,31,305.145, 271.564, 0.992715, 236.988, 0.994977, 199.379, 0.992175, 164.112, 0.990533, 163.607, 0.991421, 172.640, 0.990789, 186.860, 0.990814, 196.240, 1.000000, 190.056, 0.989342, 157.265, 0.999716, 139.320, 0.988277, 172.139, 0.998782, 196.849, 0.991143, 229.386, 0.992563, 257.271, 0.998505, 231.457, 0.990689, 236.031, 0.997668, 237.152, 0.992922, 197.163, 0.995187, 106.288, 0.994849, 116.893, 0.999908
    61,05/09/2018 02:49:46,31,305.019, 270.552, 0.989932, 236.130, 0.992021, 198.628, 0.990074, 163.596, 0.989258, 163.141, 0.989629, 172.110, 0.987838, 186.261, 0.987171, 195.893, 1.000000, 189.969, 0.986164, 156.929, 0.999486, 139.054, 0.988730, 171.773, 0.996098, 196.471, 0.992747, 229.344, 0.988312, 257.521, 0.996270, 231.604, 0.988688, 235.863, 0.995528, 237.305, 0.988531, 197.453, 0.994948, 106.405, 0.991169, 117.131, 0.998694
    62,05/09/2018 02:54:00,31,304.935, 270.148, 0.989436, 235.668, 0.991879, 198.177, 0.988741, 163.180, 0.986866, 162.424, 0.987774, 171.842, 0.986240, 186.284, 0.985608, 195.334, 1.000000, 189.646, 0.984291, 156.765, 0.998623, 138.794, 0.989156, 171.662, 0.995275, 196.192, 0.989385, 228.472, 0.986104, 256.390, 0.995016, 230.531, 0.981986, 235.026, 0.991561, 236.410, 0.982466, 196.666, 0.987327, 105.970, 0.988564, 116.577, 0.996011
    63,05/09/2018 02:58:15,31,304.848, 270.356, 0.993906, 235.324, 0.997160, 197.965, 0.995701, 163.279, 0.993548, 162.803, 0.995125, 172.025, 0.995261, 186.264, 0.994681, 195.409, 1.000000, 189.855, 0.990123, 157.038, 0.998900, 139.172, 0.995032, 171.666, 0.997743, 196.700, 0.993460, 229.553, 0.993679, 257.824, 0.996623, 231.517, 0.996623, 236.079, 0.997622, 237.311, 0.993465, 197.524, 0.994713, 106.257, 0.996361, 117.014, 0.999161
    64,05/09/2018 03:02:30,31,304.825, 270.267, 0.995677, 235.075, 0.998100, 197.896, 0.998091, 162.885, 0.994966, 162.703, 0.995957, 172.110, 0.996281, 186.013, 0.994740, 195.478, 1.000000, 189.631, 0.992433, 156.787, 0.997141, 138.894, 0.995189, 171.618, 0.997920, 196.180, 0.991844, 228.871, 0.996919, 257.430, 0.997254, 230.883, 0.993579, 235.238, 0.994969, 236.975, 0.991148, 197.127, 0.994513, 106.172, 0.996406, 116.791, 0.999402
    65,05/09/2018 03:06:44,31,304.764, 271.140, 0.996385, 235.665, 0.999485, 198.260, 0.997936, 163.225, 0.996226, 162.657, 0.997601, 171.906, 0.996092, 186.174, 0.995652, 195.420, 1.000000, 189.778, 0.993279, 156.782, 0.997474, 139.087, 0.994416, 171.853, 0.998821, 196.600, 0.989322, 228.950, 0.992240, 257.425, 0.996427, 231.299, 0.990723, 235.930, 0.993304, 237.225, 0.986579, 197.670, 0.985023, 106.216, 0.992624, 117.037, 0.994702
    66,05/09/2018 03:10:57,31,304.657, 270.032, 0.991538, 234.808, 0.997300, 197.870, 0.996713, 162.948, 0.993585, 162.338, 0.994869, 171.605, 0.995711, 186.175, 0.996183, 195.426, 1.000000, 189.868, 0.992788, 156.719, 0.996471, 138.773, 0.997399, 171.542, 0.997314, 196.199, 0.990452, 228.942, 0.995098, 257.030, 0.993393, 230.907, 0.996060, 235.032, 0.991604, 236.526, 0.998178, 196.755, 0.996170, 106.069, 0.999956, 116.785, 0.996948
    67,05/09/2018 03:15:11,31,304.619, 270.315, 0.989749, 235.210, 0.995372, 197.743, 0.995645, 163.052, 0.991131, 162.192, 0.992763, 171.433, 0.992947, 186.015, 0.994271, 195.006, 1.000000, 189.558, 0.987189, 156.777, 0.997011, 138.942, 0.993994, 171.428, 0.997002, 196.138, 0.989367, 228.946, 0.994074, 256.612, 0.995418, 230.964, 0.994161, 235.363, 0.994287, 236.848, 0.987377, 196.926, 0.989239, 105.823, 0.992057, 116.411, 0.996471